Flag for China Weather past 2 weeks in Shenzhen, Guangdong, China

Now
77 °F

Partly sunny.


Feels Like: 79 °F
Forecast: 67 / 82 °F
Wind: 13 mph from North

Location: Shenzhen Airport

Current Time: Apr 21, 2015 at 11:32:20 AM

Latest Report: Apr 21, 2015 at 11:00 AM


Visibility: N/A

Pressure: 29.98 "Hg

Humidity: 54%

Dew point: 59 °F

Location of ShenzhenLocation

Historic Weather in Shenzhen — Graph

°F

Shenzhen temperature yesterday

Maximum temperature yesterday: 81 °F (at 9:00 AM)
Minimum temperature yesterday: 72 °F (at 9:00 PM)
Average temperature yesterday: 78 °F

Past Weeks' High & Low Weather Summary

 TemperatureHumidityPressure
High84 °F (Apr 6, 1:00 PM)94% (Apr 6, 9:00 PM)30.15 "Hg (Apr 6, 9:00 PM)
Low57 °F (Apr 8, 9:00 PM)17% (Apr 14, 11:00 AM)29.68 "Hg (Apr 19, 5:00 PM)
Average71 °F74%29.97 "Hg
* Reported Apr 6 10:00 AM — Apr 21 10:00 AM, Shenzhen, Weather by CustomWeather, © 2015

Note: Actual official high and low records may vary slightly from our data, if they occured in-between our weather recording intervals... More about our weather records

Advertising

Shenzhen weather history for previous 24 hours

 ConditionsComfort  
Time TempWeatherWind HumidityBarometerVisibility
10:00 AM
Tue, Apr 21
73 °FPartly sunny.13 mph61%29.98 "HgN/A
9:00 AM72 °FPartly sunny.13 mph69%29.95 "HgN/A
8:00 AM70 °FOvercast.15 mph69%29.92 "HgN/A
7:00 AM70 °FOvercast.13 mph69%29.89 "HgN/A
6:00 AM70 °FOvercast.10 mph73%29.89 "HgN/A
5:00 AM70 °FOvercast.15 mph73%29.86 "HgN/A
4:00 AM70 °FOvercast.15 mph78%29.83 "HgN/A
3:00 AM72 °FOvercast.13 mph73%29.83 "HgN/A
2:00 AM72 °FOvercast.10 mph78%29.83 "HgN/A
1:00 AM72 °FMostly cloudy.8 mph83%29.83 "HgN/A
12:00 AM72 °FMostly cloudy.8 mph83%29.86 "HgN/A
11:00 PM
Mon, Apr 20
72 °FOvercast.8 mph78%29.86 "HgN/A
10:00 PM72 °FOvercast.10 mph78%29.86 "HgN/A
9:00 PM72 °FPartly cloudy.13 mph83%29.83 "Hg5 mi
8:00 PM73 °FPartly cloudy.17 mph83%29.77 "Hg5 mi
7:00 PM77 °FFog.10 mph83%29.74 "Hg3 mi
6:00 PM79 °FFog.8 mph84%29.71 "Hg3 mi
5:00 PM79 °FBroken clouds.1 mph89%29.71 "HgN/A
4:00 PM81 °FBroken clouds.8 mph84%29.71 "HgN/A
3:00 PM81 °FOvercast.10 mph84%29.71 "HgN/A
2:00 PM81 °FPartly sunny.13 mph84%29.71 "HgN/A
1:00 PM81 °FBroken clouds.10 mph84%29.74 "HgN/A
12:00 PM81 °FPartly sunny.10 mph84%29.77 "HgN/A
11:00 AM81 °FMore clouds than sun.10 mph84%29.80 "HgN/A
Weather by CustomWeather, © 2015

See weather overviewHow to use our weather pages